Location: Harwich
(41.6860°N, 70.0760°W)
Time: 12:49:42
(UTC-04:00)

Hubble Space Telescope - Visible Passes

Search period start: 21 April 2019 00:00
Search period end: 01 May 2019 00:00
Orbit: 537 x 540 km, 28.5° (Epoch: 20 April)

Date Brightness Start Highest point End Pass type
(mag) Time Alt. Az. Time Alt. Az. Time Alt. Az.
26 Apr 3.0 05:11:32 10° SSW 05:13:12 12° S 05:14:52 10° SSE visible
27 Apr 3.0 05:00:43 10° SSW 05:02:34 13° S 05:04:24 10° SSE visible
28 Apr 2.9 04:49:59 10° SSW 04:51:55 13° S 04:53:51 10° SSE visible
29 Apr 2.9 04:39:42 11° SSW 04:41:17 13° S 04:43:12 10° SSE visible
30 Apr 2.8 04:29:45 12° SSW 04:30:38 13° S 04:32:29 10° SSE visible
